Location: Milton
(43.5183°N, 79.8775°W)
Time: 10:39:20
(UTC+00:00)

Gurwin Techsat 1B - Pass Details

Date: 20 April 2024
Orbit: 811 x 812 km, 98.9° (Epoch: 29 May)

Event Time Altitude Azimuth Distance (km) Brightness Sun altitude
Rises 08:42:20 0° 17° (NNE) 3,346 12.7 -17.9°
Reaches altitude 10° 08:44:43 10° 20° (NNE) 2,410 11.9 -17.5°
Maximum altitude 08:50:01 65° 102° (ESE) 893 9.0 -16.7°
Drops below altitude 10° 08:55:16 10° 184° (S) 2,392 10.7 -16.0°
Enters shadow 08:55:22 - 185° (S) 2,434 10.7 -15.9°
